Wind_Speed
40 46 46 39 34 35 39 34 35 26 27 26 32 28 27 30 29 30 32 26 19 12 16 18 23 26 27 30 30 30 29 32 30 32 33 38 39 39 37 36 36 36 39 40
43 41 47 49 39 40 28 28 37 35 32 26 28 26 34 29 32 32 34 30 30 36 30 25 27 28 27 30 32 31 32 32 34 35 34 35 36 36 36 37 37 39 41 41
49 40 51 54 46 38 35 32 31 35 31 21 25 23 25 33 30 29 32 36 26 25 31 23 18 20 27 29 33 34 34 34 33 35 34 34 35 36 37 38 39 40 40 42
50 42 51 47 53 43 38 36 37 36 34 25 29 30 32 35 38 38 36 23 22 23 31 30 27 26 28 31 33 34 36 36 36 35 33 33 35 37 37 38 39 40 42 44
52 53 54 51 46 48 49 44 41 42 37 31 35 32 35 39 43 40 32 26 28 27 31 35 35 33 35 34 32 33 34 34 34 35 36 36 37 38 38 39 41 43 46 49
47 51 51 47 45 44 52 53 48 42 40 40 39 39 36 36 37 34 31 31 30 31 33 32 35 35 34 35 36 34 34 35 36 36 38 38 39 40 41 43 45 48 51 55
47 39 40 50 40 40 50 46 40 36 30 38 38 40 38 39 39 34 33 32 32 33 33 34 34 33 33 33 34 36 36 36 37 39 39 41 41 42 44 46 50 53 56 59
45 46 45 40 33 41 44 36 36 28 32 39 40 41 40 39 38 35 34 35 36 37 35 35 35 34 32 31 32 33 35 37 38 39 41 43 44 46 48 51 55 58 60 61
33 45 49 46 43 44 40 43 38 35 43 44 40 36 37 38 40 38 36 36 37 37 36 37 37 35 34 32 33 35 36 39 39 40 43 46 48 50 53 58 60 63 64 66
30 35 46 40 44 34 39 37 40 45 43 38 39 40 37 47 42 41 40 40 40 39 38 39 38 36 36 36 37 39 40 41 42 44 47 50 53 56 60 65 69 69 68 67
42 25 43 34 41 47 37 42 45 50 52 48 47 47 34 32 34 36 38 41 42 40 39 39 37 37 38 40 42 43 44 45 46 50 52 55 58 62 67 69 69 68 63 64
42 37 18 29 38 45 47 44 40 48 49 47 44 45 43 39 42 42 39 40 41 43 44 42 41 41 42 43 44 47 49 51 53 56 59 60 63 68 67 65 67 68 66 69
42 39 47 33 38 45 50 47 41 35 40 46 48 49 50 47 45 48 49 45 42 43 41 38 41 44 45 46 48 51 54 57 61 63 63 64 69 69 63 61 63 66 72 75
42 43 46 49 44 39 38 39 37 41 42 43 44 48 47 47 48 49 48 46 44 41 43 44 42 41 45 52 55 57 59 62 64 63 63 66 66 64 64 65 68 71 74 72
33 39 37 37 39 40 36 35 37 38 42 48 50 51 56 54 53 53 44 45 44 46 44 47 50 47 49 49 51 53 58 59 63 65 66 69 70 72 74 77 78 77 76 77
27 28 28 30 34 36 36 32 34 36 38 41 42 45 49 46 50 42 45 53 50 52 53 48 53 51 51 53 53 61 64 64 67 69 72 75 76 76 77 77 77 76 77 79
27 30 29 30 30 29 29 30 32 39 38 40 43 46 46 44 39 40 42 39 47 44 45 55 53 53 57 59 58 62 66 73 70 70 72 73 74 75 75 75 75 77 78 81
20 21 24 26 25 25 31 35 37 35 38 41 41 40 42 44 47 51 52 52 50 51 52 63 64 60 62 59 62 68 71 70 68 69 70 71 71 71 72 74 76 79 82 83
23 28 33 35 36 37 37 40 43 46 47 48 48 50 50 48 48 50 52 54 51 56 59 62 61 59 62 66 69 68 67 67 67 66 65 66 69 72 75 78 79 80 82 85
29 32 35 38 41 43 44 46 48 47 46 45 45 45 46 47 52 55 52 55 54 58 62 62 61 65 65 63 62 62 61 61 61 64 68 71 73 75 77 79 82 85 87 89
33 35 36 37 37 40 42 43 44 42 41 42 43 44 44 46 49 52 56 58 62 63 61 60 58 58 57 57 60 61 62 65 68 71 73 75 77 81 84 86 88 90 92 93
35 37 38 39 38 38 38 37 37 38 40 42 44 45 47 48 48 48 50 52 53 54 55 56 58 60 61 61 62 64 68 71 73 76 78 81 85 87 89 91 92 93 94 94
25 27 28 30 32 34 35 37 38 39 40 41 42 43 44 44 46 47 50 52 54 56 58 60 62 64 66 68 69 72 74 77 79 82 85 88 89 91 92 93 93 93 92 89
28 31 32 34 35 36 37 39 40 41 43 44 45 46 48 50 52 54 56 57 58 60 62 64 65 68 70 73 76 79 82 84 86 88 89 89 90 92 92 90 88 85 83 82
31 33 34 34 36 38 40 41 42 44 47 49 50 53 55 57 58 59 60 62 64 65 67 71 74 76 79 81 83 85 86 87 87 87 87 86 85 84 82 81 81 81 81 81
31 33 34 36 39 41 43 46 47 49 52 54 57 59 61 63 65 67 70 71 73 74 75 76 77 78 79 81 82 83 83 82 80 79 77 76 76 77 79 80 80 80 80 80
39 41 44 46 47 49 52 54 56 57 59 61 62 63 65 66 68 69 70 71 72 74 76 76 76 77 76 75 74 73 72 71 70 70 71 73 75 75 76 77 78 77 76 73
Wind_Direction
236 224 227 225 229 230 237 245 242 249 246 224 236 242 250 254 259 271 276 277 260 252 255 269 276 284 284 279 278 278 277 278 282 282 282 285 287 287 290 290 288 292 293 293
233 233 221 224 228 219 227 242 243 245 252 247 254 245 250 246 263 264 268 272 268 275 283 260 262 268 271 272 275 279 284 281 281 280 282 281 281 283 284 284 289 289 289 288
233 234 223 227 219 219 232 227 236 242 261 253 245 237 244 258 258 263 261 277 289 287 279 273 264 262 268 267 268 269 270 274 277 277 279 284 284 285 284 284 285 285 285 288
236 231 224 234 226 224 224 228 229 234 235 227 240 246 249 254 260 263 271 283 275 273 276 282 285 281 273 270 268 272 276 276 277 279 283 285 283 282 283 284 283 285 288 291
233 233 240 238 234 224 230 229 232 235 241 244 244 243 246 245 251 257 262 274 280 280 273 280 284 284 284 280 272 269 269 270 273 277 278 277 278 282 282 282 285 288 289 293
231 234 242 242 236 227 229 235 229 239 243 247 254 243 245 244 247 257 260 263 273 281 284 284 287 292 291 286 281 275 272 271 271 274 274 277 281 281 281 284 287 288 292 295
226 232 241 243 236 231 232 241 236 243 242 247 244 234 240 247 247 253 258 263 269 274 278 282 283 284 284 283 281 277 275 273 271 270 274 277 277 278 280 284 285 289 292 297
228 227 229 231 240 237 245 247 238 225 237 244 246 241 244 248 254 253 256 262 264 269 275 278 278 279 281 279 276 275 272 270 271 272 275 275 276 279 283 286 288 290 294 294
238 226 231 237 241 246 250 235 226 226 227 236 244 242 247 255 256 261 258 260 262 267 271 275 276 277 278 279 275 271 270 271 274 275 276 278 281 284 285 287 291 293 294 295
270 245 232 240 239 233 236 227 238 230 232 233 247 249 243 246 256 264 263 263 264 268 270 272 275 277 279 277 273 272 273 274 276 278 279 281 283 285 288 288 290 292 294 296
260 260 228 233 236 240 240 241 236 228 235 239 238 241 256 263 265 263 265 266 265 266 267 269 273 275 276 276 276 276 276 278 278 279 280 282 284 286 287 290 294 294 295 298
258 244 242 245 227 235 244 244 242 240 233 235 246 251 257 261 263 266 267 270 269 268 267 268 269 272 275 278 279 280 279 278 278 279 280 284 285 289 296 297 295 292 294 301
251 250 248 244 240 233 241 247 248 223 234 239 243 253 258 259 267 269 269 268 269 268 269 273 278 279 277 276 277 278 278 278 278 280 283 285 286 288 295 294 295 292 295 297
250 255 252 249 249 245 244 252 253 234 232 240 247 255 259 264 266 266 268 271 271 275 272 276 277 283 285 280 275 276 279 280 282 283 286 291 293 296 292 291 292 291 294 294
255 256 256 252 252 253 259 262 262 259 255 254 254 257 259 263 263 262 273 266 266 274 277 275 279 283 287 285 284 284 283 282 287 289 290 295 291 290 288 287 286 287 288 289
249 256 257 256 258 259 261 262 265 261 258 257 261 263 259 264 262 261 260 261 271 277 276 278 282 282 285 279 282 286 290 287 285 283 284 284 284 284 284 284 285 286 289 293
251 254 253 256 255 252 250 254 261 252 252 255 256 260 264 267 270 267 267 261 270 275 275 281 269 277 280 281 279 277 280 282 283 282 282 282 282 283 284 287 289 291 293 295
240 251 255 255 255 254 257 259 261 261 258 263 268 267 267 271 275 278 277 276 275 277 276 274 281 279 279 275 282 283 281 282 280 280 280 282 283 285 286 289 292 292 292 292
248 250 249 248 253 252 252 254 255 256 258 261 264 267 270 273 275 274 274 275 270 269 272 278 277 276 275 279 281 282 281 282 282 282 283 284 285 287 288 289 289 291 293 295
238 244 247 248 250 252 255 259 262 267 271 274 273 271 270 267 261 269 276 277 276 273 276 278 278 279 280 279 279 282 283 282 282 283 284 285 286 287 289 291 293 295 296 297
239 244 249 254 261 266 269 269 272 273 272 272 271 272 272 273 273 274 274 274 278 272 275 278 277 277 277 278 280 281 281 284 285 286 287 288 290 292 293 294 295 297 299 300
256 259 260 264 267 265 266 269 268 268 269 269 270 270 272 274 275 276 276 275 274 275 275 277 279 280 280 280 280 282 284 285 287 289 290 291 292 293 295 297 298 299 299 298
246 250 254 259 262 265 267 270 274 275 275 274 274 274 274 273 273 274 275 276 278 279 280 281 282 283 283 284 285 286 287 288 289 291 292 295 297 298 298 298 298 298 297 297
261 263 266 267 268 268 269 270 271 272 273 274 274 275 275 274 275 276 276 277 279 280 282 283 283 284 285 286 288 289 291 293 296 298 298 298 297 297 297 296 297 297 297 297
274 273 272 271 271 271 271 270 270 273 275 277 278 279 279 280 280 279 280 281 282 283 284 285 287 289 290 291 292 294 295 296 296 296 297 296 296 296 298 298 298 298 297 297
282 282 284 283 282 281 280 280 280 278 278 277 278 278 279 279 280 282 283 284 286 287 287 288 289 291 292 293 294 295 296 296 296 296 297 298 299 299 299 299 299 298 297 297
299 299 298 298 296 294 292 290 289 287 286 285 284 284 283 284 284 284 285 286 287 288 289 290 291 293 294 295 295 296 297 298 299 299 300 301 301 300 300 300 299 300 299 298
Height
5658 5666 5668 5673 5679 5683 5683 5688 5687 5693 5693 5699 5700 5700 5701 5701 5701 5701 5700 5700 5704 5706 5707 5706 5704 5704 5702 5701 5701 5701 5701 5700 5698 5700 5700 5697 5696 5695 5693 5692 5691 5689 5687 5685
5648 5655 5659 5662 5668 5670 5675 5680 5681 5684 5685 5690 5693 5692 5692 5696 5694 5694 5693 5694 5695 5694 5699 5700 5701 5700 5699 5696 5694 5694 5695 5694 5694 5693 5692 5691 5689 5687 5686 5684 5682 5680 5678 5675
5638 5646 5651 5650 5655 5662 5667 5670 5675 5675 5680 5684 5685 5685 5685 5684 5685 5685 5687 5687 5685 5685 5684 5688 5692 5693 5692 5692 5690 5689 5689 5688 5687 5684 5682 5681 5679 5677 5676 5674 5672 5670 5668 5665
5629 5637 5636 5644 5647 5655 5659 5664 5666 5668 5672 5673 5676 5677 5677 5676 5676 5677 5679 5679 5681 5681 5678 5678 5680 5680 5681 5682 5682 5680 5678 5677 5675 5673 5673 5672 5670 5668 5666 5664 5662 5661 5658 5655
5616 5622 5628 5634 5643 5648 5650 5655 5658 5659 5664 5667 5669 5669 5668 5669 5670 5671 5673 5673 5673 5673 5673 5672 5671 5671 5671 5670 5670 5669 5669 5667 5666 5665 5664 5662 5660 5659 5657 5655 5653 5651 5648 5645
5607 5612 5616 5625 5635 5642 5642 5640 5652 5654 5657 5659 5661 5658 5660 5660 5663 5664 5666 5666 5666 5667 5666 5665 5663 5662 5661 5660 5658 5658 5657 5656 5655 5655 5653 5652 5651 5649 5647 5645 5642 5639 5635 5631
5596 5603 5610 5612 5625 5631 5632 5638 5646 5647 5650 5649 5648 5649 5651 5652 5654 5656 5657 5658 5658 5658 5658 5657 5655 5655 5653 5651 5650 5650 5649 5648 5647 5644 5643 5642 5640 5638 5635 5632 5629 5625 5622 5617
5591 5597 5601 5606 5614 5620 5624 5632 5635 5636 5639 5638 5638 5640 5642 5643 5644 5648 5649 5649 5649 5648 5647 5646 5645 5645 5644 5643 5642 5641 5640 5637 5636 5634 5633 5630 5628 5626 5624 5620 5614 5609 5607 5601
5584 5591 5596 5604 5607 5610 5613 5617 5620 5625 5624 5623 5627 5631 5634 5635 5636 5638 5639 5639 5638 5638 5638 5637 5636 5635 5634 5633 5632 5630 5628 5626 5625 5624 5621 5618 5616 5614 5610 5604 5600 5593 5589 5583
5578 5586 5588 5593 5597 5597 5601 5608 5611 5612 5612 5618 5619 5621 5623 5623 5625 5628 5629 5628 5627 5628 5627 5625 5625 5625 5624 5623 5620 5618 5616 5615 5613 5611 5608 5606 5602 5598 5594 5589 5583 5577 5570 5565
5574 5579 5581 5583 5586 5591 5594 5595 5601 5602 5602 5604 5607 5611 5613 5615 5616 5617 5616 5615 5615 5615 5614 5612 5613 5612 5612 5610 5608 5607 5604 5603 5600 5597 5594 5591 5587 5582 5577 5572 5566 5560 5553 5547
5568 5572 5571 5574 5576 5580 5581 5586 5587 5591 5595 5595 5595 5600 5604 5606 5606 5606 5604 5602 5603 5603 5602 5601 5600 5600 5599 5598 5596 5594 5591 5588 5585 5581 5579 5575 5570 5564 5559 5553 5548 5543 5536 5529
5555 5559 5560 5565 5569 5571 5573 5574 5580 5583 5587 5591 5592 5591 5592 5596 5595 5592 5591 5590 5591 5591 5590 5589 5588 5587 5586 5584 5582 5579 5575 5571 5568 5565 5561 5557 5551 5545 5539 5534 5529 5524 5518 5510
5548 5552 5557 5562 5564 5563 5565 5567 5567 5572 5576 5579 5580 5580 5581 5583 5583 5582 5582 5582 5581 5580 5578 5576 5574 5572 5570 5568 5565 5563 5559 5554 5549 5546 5544 5539 5534 5528 5522 5516 5511 5505 5498 5492
5541 5544 5548 5551 5552 5556 5557 5558 5559 5562 5564 5566 5568 5569 5568 5570 5570 5571 5570 5569 5568 5566 5563 5562 5560 5558 5555 5552 5549 5546 5542 5538 5533 5529 5524 5520 5515 5510 5505 5499 5492 5485 5478 5472
5533 5535 5539 5542 5542 5545 5547 5548 5550 5552 5552 5553 5554 5554 5554 5555 5554 5555 5555 5555 5554 5551 5549 5548 5546 5541 5539 5537 5533 5529 5525 5520 5517 5512 5506 5501 5496 5490 5484 5478 5471 5465 5459 5453
5525 5527 5529 5531 5532 5536 5536 5537 5538 5539 5540 5540 5540 5540 5540 5540 5540 5540 5540 5539 5539 5537 5534 5534 5528 5525 5522 5520 5516 5512 5508 5503 5497 5492 5487 5481 5475 5470 5464 5458 5452 5444 5437 5430
5518 5520 5523 5524 5524 5525 5527 5528 5529 5529 5528 5528 5528 5528 5528 5528 5528 5527 5526 5525 5523 5520 5518 5515 5512 5508 5505 5502 5498 5493 5488 5483 5477 5472 5467 5461 5457 5451 5444 5438 5431 5423 5415 5407
5511 5513 5513 5514 5514 5515 5516 5516 5517 5517 5517 5517 5517 5517 5516 5516 5515 5513 5511 5509 5507 5504 5501 5498 5495 5491 5487 5483 5479 5474 5469 5464 5459 5454 5449 5443 5438 5431 5424 5417 5409 5401 5392 5384
5501 5502 5502 5503 5503 5503 5503 5503 5504 5504 5504 5505 5505 5504 5503 5502 5502 5499 5496 5493 5490 5488 5484 5480 5477 5473 5469 5465 5461 5456 5451 5446 5441 5436 5430 5424 5417 5410 5402 5394 5387 5378 5369 5359
5490 5491 5491 5492 5492 5493 5492 5492 5492 5492 5491 5491 5491 5490 5489 5487 5485 5483 5480 5477 5474 5470 5466 5462 5459 5456 5451 5446 5442 5438 5433 5428 5422 5416 5410 5402 5395 5387 5378 5370 5362 5353 5343 5333
5482 5482 5483 5483 5483 5483 5482 5482 5481 5480 5479 5478 5477 5475 5474 5472 5469 5467 5464 5461 5457 5454 5450 5446 5442 5438 5434 5429 5423 5418 5412 5406 5400 5393 5386 5379 5371 5363 5354 5344 5336 5326 5316 5306
5472 5473 5473 5473 5472 5472 5471 5469 5468 5467 5466 5465 5463 5461 5459 5457 5454 5452 5449 5445 5441 5438 5433 5429 5424 5420 5415 5410 5404 5398 5391 5385 5378 5370 5362 5353 5344 5335 5326 5317 5308 5298 5288 5278
5464 5463 5463 5462 5461 5460 5459 5458 5457 5456 5454 5452 5450 5448 5445 5442 5439 5436 5433 5428 5424 5419 5415 5410 5405 5400 5394 5388 5382 5375 5367 5360 5352 5343 5335 5326 5317 5307 5298 5289 5280 5271 5261 5252
5454 5453 5452 5450 5449 5447 5446 5445 5443 5441 5439 5437 5434 5431 5428 5425 5422 5418 5414 5411 5406 5400 5395 5389 5384 5378 5371 5364 5357 5350 5342 5334 5327 5318 5309 5300 5290 5280 5270 5261 5252 5243 5235 5226
5444 5442 5440 5438 5437 5435 5433 5431 5429 5426 5423 5421 5418 5415 5411 5407 5404 5400 5395 5390 5385 5380 5374 5369 5363 5356 5348 5341 5333 5325 5317 5309 5301 5292 5283 5274 5264 5255 5245 5236 5227 5218 5208 5200
5433 5431 5428 5426 5423 5421 5418 5415 5413 5410 5406 5403 5399 5395 5391 5386 5382 5379 5374 5368 5362 5355 5350 5344 5338 5331 5324 5317 5310 5302 5293 5285 5277 5269 5260 5251 5242 5232 5221 5211 5201 5191 5182 5174